Time,TemperatureF,DewpointF,PressureIn,WindDirection,WindDirectionDegrees,WindSpeedMPH,WindSpeedGustMPH,Humidity,HourlyPrecipIn,Conditions,Clouds,dailyrainin,SoftwareType,DateUTC
2013-02-06 10:21:00,74.0,61.0,30.09,ENE,65,3.0,-999.0,64,-99.99,,,-99.99,,2013-02-06 15:21:00,
2013-02-06 10:32:00,77.0,62.0,30.10,ENE,65,2.0,-999.0,59,-99.99,,,-99.99,,2013-02-06 15:32:00,
2013-02-06 10:42:00,77.0,62.0,30.10,ENE,65,2.0,-999.0,59,-99.99,,,-99.99,,2013-02-06 15:42:00,
2013-02-06 10:52:00,81.0,61.0,30.10,ENE,65,1.0,-999.0,51,-99.99,,,-99.99,,2013-02-06 15:52:00,
2013-02-06 11:01:00,82.0,63.0,30.10,ENE,65,1.0,-999.0,52,-99.99,,,-99.99,,2013-02-06 16:01:00,
2013-02-06 11:21:00,83.0,62.0,30.10,ENE,65,1.0,-999.0,49,-99.99,,,-99.99,,2013-02-06 16:21:00,
2013-02-06 11:32:00,84.0,62.0,30.10,ENE,65,1.0,-999.0,48,-99.99,,,-99.99,,2013-02-06 16:32:00,
2013-02-06 11:52:00,85.0,62.0,30.09,ENE,65,1.0,-999.0,46,-99.99,,,-99.99,,2013-02-06 16:52:00,
2013-02-06 12:02:00,83.0,61.0,30.08,ENE,65,1.0,-999.0,48,-99.99,,,-99.99,,2013-02-06 17:02:00,
2013-02-06 12:12:00,83.0,61.0,30.08,ENE,65,1.0,-999.0,48,-99.99,,,-99.99,,2013-02-06 17:12:00,
2013-02-06 12:22:00,79.0,62.0,30.08,ENE,78,2.0,-999.0,56,-99.99,,,-99.99,,2013-02-06 17:22:00,
2013-02-06 12:42:00,76.0,62.0,30.08,SE,127,2.0,-999.0,62,-99.99,,,-99.99,,2013-02-06 17:42:00,
2013-02-06 12:52:00,76.0,62.0,30.08,SE,127,2.0,-999.0,62,-99.99,,,-99.99,,2013-02-06 17:52:00,
2013-02-06 13:02:00,76.0,61.0,30.06,SE,143,3.0,-999.0,60,-99.99,,,-99.99,,2013-02-06 18:02:00,
2013-02-06 13:12:00,77.0,61.0,30.06,SSE,153,4.0,-999.0,58,-99.99,,,-99.99,,2013-02-06 18:12:00,
2013-02-06 13:23:00,77.0,61.0,30.06,SSE,153,4.0,-999.0,58,-99.99,,,-99.99,,2013-02-06 18:23:00,
2013-02-06 13:32:00,78.0,62.0,30.05,SSW,202,3.0,-999.0,57,-99.99,,,-99.99,,2013-02-06 18:32:00,
2013-02-06 13:42:00,78.0,62.0,30.05,SSW,202,3.0,-999.0,57,-99.99,,,-99.99,,2013-02-06 18:42:00,
2013-02-06 13:52:00,80.0,61.0,30.04,SSW,203,2.0,-999.0,53,-99.99,,,-99.99,,2013-02-06 18:52:00,
2013-02-06 14:02:00,80.0,61.0,30.04,SW,216,4.0,-999.0,53,-99.99,,,-99.99,,2013-02-06 19:02:00,
2013-02-06 14:11:00,80.0,61.0,30.04,SW,216,4.0,-999.0,53,-99.99,,,-99.99,,2013-02-06 19:11:00,
2013-02-06 14:21:00,80.0,61.0,30.03,SSW,213,3.0,-999.0,53,-99.99,,,-99.99,,2013-02-06 19:21:00,
2013-02-06 14:32:00,81.0,63.0,30.02,West,280,3.0,-999.0,55,-99.99,,,-99.99,,2013-02-06 19:32:00,
2013-02-06 14:42:00,81.0,63.0,30.02,West,280,3.0,-999.0,55,-99.99,,,-99.99,,2013-02-06 19:42:00,
2013-02-06 14:52:00,80.0,63.0,30.02,SSW,202,4.0,-999.0,56,-99.99,,,-99.99,,2013-02-06 19:52:00,
2013-02-06 15:01:00,80.0,63.0,30.03,WSW,252,5.0,-999.0,57,-99.99,,,-99.99,,2013-02-06 20:01:00,
2013-02-06 15:11:00,80.0,64.0,30.02,SSW,213,4.0,-999.0,58,-99.99,,,-99.99,,2013-02-06 20:11:00,
2013-02-06 15:21:00,80.0,64.0,30.02,SSW,213,4.0,-999.0,58,-99.99,,,-99.99,,2013-02-06 20:21:00,
2013-02-06 15:32:00,80.0,64.0,30.02,SSW,203,5.0,-999.0,58,-99.99,,,-99.99,,2013-02-06 20:32:00,
2013-02-06 15:42:00,80.0,64.0,30.02,SSW,203,5.0,-999.0,58,-99.99,,,-99.99,,2013-02-06 20:42:00,
2013-02-06 15:52:00,79.0,63.0,30.02,SSW,202,5.0,-999.0,59,-99.99,,,-99.99,,2013-02-06 20:52:00,
2013-02-06 16:02:00,80.0,64.0,30.01,SSW,199,5.0,-999.0,59,-99.99,,,-99.99,,2013-02-06 21:02:00,
2013-02-06 16:11:00,80.0,64.0,30.01,SSW,199,5.0,-999.0,59,-99.99,,,-99.99,,2013-02-06 21:11:00,
2013-02-06 16:21:00,80.0,64.0,30.01,SSE,165,4.0,-999.0,59,-99.99,,,-99.99,,2013-02-06 21:21:00,
2013-02-06 16:32:00,78.0,64.0,30.01,SSW,202,4.0,-999.0,63,-99.99,,,-99.99,,2013-02-06 21:32:00,
2013-02-06 16:42:00,78.0,64.0,30.01,SSW,202,4.0,-999.0,63,-99.99,,,-99.99,,2013-02-06 21:42:00,
2013-02-06 16:51:00,77.0,64.0,30.01,South,175,5.0,-999.0,64,-99.99,,,-99.99,,2013-02-06 21:51:00,
2013-02-06 17:01:00,77.0,63.0,30.01,South,169,4.0,-999.0,63,-99.99,,,-99.99,,2013-02-06 22:01:00,
2013-02-06 17:11:00,77.0,63.0,30.01,South,169,4.0,-999.0,63,-99.99,,,-99.99,,2013-02-06 22:11:00,
2013-02-06 17:22:00,77.0,64.0,30.01,SSW,192,4.0,-999.0,64,-99.99,,,-99.99,,2013-02-06 22:22:00,
2013-02-06 17:32:00,77.0,63.0,30.01,South,177,3.0,-999.0,63,-99.99,,,-99.99,,2013-02-06 22:32:00,
2013-02-06 17:42:00,77.0,63.0,30.01,South,177,3.0,-999.0,63,-99.99,,,-99.99,,2013-02-06 22:42:00,
2013-02-06 17:52:00,77.0,63.0,30.01,SW,219,4.0,-999.0,63,-99.99,,,-99.99,,2013-02-06 22:52:00,
2013-02-06 18:01:00,76.0,63.0,30.01,SSW,194,4.0,-999.0,64,-99.99,,,-99.99,,2013-02-06 23:01:00,
2013-02-06 18:11:00,76.0,63.0,30.01,SSW,194,4.0,-999.0,64,-99.99,,,-99.99,,2013-02-06 23:11:00,
2013-02-06 18:21:00,75.0,64.0,30.01,SSW,206,4.0,-999.0,68,-99.99,,,-99.99,,2013-02-06 23:21:00,
2013-02-06 18:32:00,74.0,63.0,30.01,SW,225,3.0,-999.0,69,-99.99,,,-99.99,,2013-02-06 23:32:00,
2013-02-06 18:42:00,74.0,63.0,30.01,SW,225,3.0,-999.0,69,-99.99,,,-99.99,,2013-02-06 23:42:00,
2013-02-06 18:52:00,73.0,63.0,30.02,SW,234,1.0,-999.0,70,-99.99,,,-99.99,,2013-02-06 23:52:00,
2013-02-06 19:02:00,72.0,62.0,30.01,SW,234,2.0,-999.0,72,-99.99,,,-99.99,,2013-02-07 00:02:00,
2013-02-06 19:11:00,72.0,62.0,30.01,SW,234,2.0,-999.0,72,-99.99,,,-99.99,,2013-02-07 00:11:00,
2013-02-06 19:22:00,72.0,64.0,30.01,SW,234,1.0,-999.0,75,-99.99,,,-99.99,,2013-02-07 00:22:00,
2013-02-06 19:32:00,71.0,63.0,30.02,SW,234,1.0,-999.0,77,-99.99,,,-99.99,,2013-02-07 00:32:00,
2013-02-06 19:42:00,71.0,63.0,30.02,SW,234,1.0,-999.0,77,-99.99,,,-99.99,,2013-02-07 00:42:00,
2013-02-06 19:52:00,71.0,64.0,30.02,SW,234,1.0,-999.0,79,-99.99,,,-99.99,,2013-02-07 00:52:00,
2013-02-06 20:01:00,70.0,64.0,30.03,SW,234,1.0,-999.0,80,-99.99,,,-99.99,,2013-02-07 01:01:00,
2013-02-06 20:11:00,70.0,64.0,30.03,SW,234,1.0,-999.0,80,-99.99,,,-99.99,,2013-02-07 01:11:00,
2013-02-06 20:21:00,70.0,64.0,30.03,SW,234,1.0,-999.0,81,-99.99,,,-99.99,,2013-02-07 01:21:00,
2013-02-06 20:32:00,69.0,63.0,30.03,SW,234,0.0,-999.0,82,-99.99,,,-99.99,,2013-02-07 01:32:00,
2013-02-06 20:42:00,69.0,63.0,30.03,SW,234,0.0,-999.0,82,-99.99,,,-99.99,,2013-02-07 01:42:00,
2013-02-06 20:52:00,69.0,64.0,30.04,SW,234,0.0,-999.0,84,-99.99,,,-99.99,,2013-02-07 01:52:00,
2013-02-06 21:02:00,68.0,64.0,30.04,SW,234,1.0,-999.0,86,-99.99,,,-99.99,,2013-02-07 02:02:00,
2013-02-06 21:12:00,68.0,64.0,30.04,SW,234,1.0,-999.0,86,-99.99,,,-99.99,,2013-02-07 02:12:00,
2013-02-06 21:21:00,68.0,65.0,30.05,SW,229,1.0,-999.0,89,-99.99,,,-99.99,,2013-02-07 02:21:00,
2013-02-06 21:32:00,68.0,64.0,30.05,SW,229,0.0,-999.0,88,-99.99,,,-99.99,,2013-02-07 02:32:00,
2013-02-06 21:42:00,68.0,64.0,30.05,SW,229,0.0,-999.0,88,-99.99,,,-99.99,,2013-02-07 02:42:00,
2013-02-06 21:51:00,68.0,64.0,30.05,SW,229,0.0,-999.0,88,-99.99,,,-99.99,,2013-02-07 02:51:00,
2013-02-06 22:02:00,69.0,66.0,30.06,SW,229,0.0,-999.0,89,-99.99,,,-99.99,,2013-02-07 03:02:00,
2013-02-06 22:11:00,69.0,66.0,30.06,SW,229,0.0,-999.0,89,-99.99,,,-99.99,,2013-02-07 03:11:00,
2013-02-06 22:21:00,69.0,66.0,30.06,SW,226,1.0,-999.0,89,-99.99,,,-99.99,,2013-02-07 03:21:00,
2013-02-06 22:32:00,69.0,66.0,30.06,SW,226,0.0,-999.0,89,-99.99,,,-99.99,,2013-02-07 03:32:00,
2013-02-06 22:42:00,69.0,66.0,30.06,SW,226,0.0,-999.0,89,-99.99,,,-99.99,,2013-02-07 03:42:00,
2013-02-06 22:52:00,69.0,66.0,30.06,SW,226,0.0,-999.0,89,-99.99,,,-99.99,,2013-02-07 03:52:00,
2013-02-06 23:01:00,69.0,66.0,30.06,SW,226,0.0,-999.0,90,-99.99,,,-99.99,,2013-02-07 04:01:00,
2013-02-06 23:11:00,69.0,66.0,30.06,SW,226,0.0,-999.0,90,-99.99,,,-99.99,,2013-02-07 04:11:00,
2013-02-06 23:22:00,68.0,65.0,30.06,South,179,1.0,-999.0,90,-99.99,,,-99.99,,2013-02-07 04:22:00,
2013-02-06 23:32:00,68.0,65.0,30.06,SSE,155,1.0,-999.0,91,-99.99,,,-99.99,,2013-02-07 04:32:00,
2013-02-06 23:42:00,68.0,65.0,30.06,SSE,155,1.0,-999.0,91,-99.99,,,-99.99,,2013-02-07 04:42:00,
2013-02-06 23:53:00,68.0,65.0,30.06,SSE,155,1.0,-999.0,91,-99.99,,,-99.99,,2013-02-07 04:53:00,